South Bend, IN

9:23 PM EST on February 25, 2017 (GMT -0500)
South Bend Regional

Weather History for KSBN - December, 2012

Change the Weather History Date:

Friday, December 21, 2012

  Actual Average Record
Temperature  
Mean Temperature 34 °F 27 °F  
Max Temperature 36 °F 34 °F 60 °F (1967)
Min Temperature 31 °F 21 °F -15 °F (1901)
Degree Days  
Heating Degree Days 31 38  
Month to date heating degree days 509 733  
Since 1 July heating degree days 1830 2002  
Cooling Degree Days 0 0  
Month to date cooling degree days 0 0  
Year to date cooling degree days 1115 773  
Moisture  
Dew Point 28 °F    
Average Humidity 83    
Maximum Humidity 96    
Minimum Humidity 69    
Precipitation  
Precipitation 0.45 in 0.08 in 1.91 in (1949)
Month to date precipitation 3.01 1.80  
Year to date precipitation 34.27 37.19  
Snow  
Snow 1.00 in 0.60 in 8.00 in (1983)
Month to date snowfall 2.6 10.9  
Since 1 July snowfall 2.6 16.1  
Snow Depth 1.00 in    
Sea Level Pressure  
Sea Level Pressure 29.66 in    
Wind  
Wind Speed 27 mph (NW)    
Max Wind Speed 40 mph    
Max Gust Speed 52 mph    
Visibility 6 miles    
Events Rain , Snow    
T = Trace of Precipitation, MM = Missing Value Source: NWS Daily Summary

Daily Weather History Graph

Daily Weather History Graph

Search for Another Location

Airport or City:

Trip Planner

Search our weather history database for the weather conditions in past years. The results will help you decide how hot, cold, wet, or windy it might be!

Date:

Astronomy

Dec. 21, 2012 Rise Set
Actual Time 8:09 AM EST 5:18 PM EST
Civil Twilight 7:37 AM EST 5:49 PM EST
Nautical Twilight 7:02 AM EST 6:24 PM EST
Astronomical Twilight 6:28 AM EST 6:58 PM EST
Moon 1:08 PM EST (12/21) 1:52 AM EST (12/21)
Length of Visible Light 10h 12m
Length of Day
9h 08m
Waxing Gibbous, 64% of the Moon is Illuminated
Dec 21
Waxing Gibbous
Dec 28
Full
Jan 4
Last Quarter
Jan 11
New
Jan 18
First Quarter

Hourly Weather History & Observations

Time (EST) Temp. Windchill Dew Point Humidity Pressure Visibility Wind Dir Wind Speed Gust Speed Precip Events Conditions
12:51 AM 33.8 °F 20.3 °F 32.0 °F 93% 29.20 in 2.0 mi WNW 28.8 mph 49.5 mph 0.08 in Snow Light Snow
12:54 AM 34.0 °F 20.5 °F 32.0 °F 92% 29.22 in 2.0 mi WNW 28.8 mph 43.7 mph 0.08 in Snow Light Snow
1:02 AM 33.8 °F 19.2 °F 32.0 °F 93% 29.20 in 1.5 mi WNW 34.5 mph 50.6 mph 0.00 in Snow Light Snow
1:54 AM 34.0 °F 19.3 °F 32.0 °F 92% 29.26 in 1.2 mi WNW 35.7 mph 46.0 mph 0.10 in Snow Light Snow
2:30 AM 35.6 °F 22.3 °F 32.0 °F 87% 29.30 in 3.0 mi NW 31.1 mph 47.2 mph 0.04 in Snow Light Snow
2:41 AM 33.8 °F 19.2 °F 32.0 °F 93% 29.31 in 2.0 mi NW 34.5 mph 49.5 mph 0.06 in Snow Light Snow
2:54 AM 34.0 °F 19.7 °F 32.0 °F 92% 29.35 in 1.8 mi NW 33.4 mph 39.1 mph 0.06 in Snow Light Snow
3:21 AM 33.8 °F 20.8 °F 30.2 °F 87% 29.37 in 2.0 mi NW 26.5 mph 41.4 mph 0.03 in Snow Light Snow
3:50 AM 33.8 °F 22.5 °F 32.0 °F 93% 29.40 in 2.5 mi NNW 19.6 mph 32.2 mph 0.04 in Snow Light Snow
3:54 AM 34.0 °F 21.3 °F 32.0 °F 92% 29.42 in 2.5 mi NW 25.3 mph 36.8 mph 0.05 in Snow Light Snow
4:04 AM 33.8 °F 20.8 °F 32.0 °F 93% 29.41 in 1.5 mi NNW 26.5 mph 41.4 mph 0.00 in Snow Light Snow
4:26 AM 33.8 °F 20.3 °F 32.0 °F 93% 29.43 in 1.5 mi NW 28.8 mph 38.0 mph 0.02 in Snow Light Snow
4:54 AM 34.0 °F 20.5 °F 30.9 °F 89% 29.47 in 1.0 mi NW 28.8 mph 42.6 mph 0.06 in Snow Light Snow
5:54 AM 33.1 °F 19.8 °F 30.9 °F 92% 29.51 in 1.0 mi NW 26.5 mph 36.8 mph 0.06 in Snow Light Snow
6:25 AM 33.8 °F 20.5 °F 30.2 °F 87% 29.51 in 1.0 mi NW 27.6 mph 41.4 mph 0.01 in Snow Light Snow
6:47 AM 33.8 °F 19.9 °F 30.2 °F 87% 29.52 in 2.0 mi NW 31.1 mph 51.8 mph 0.02 in Snow Light Snow
6:54 AM 34.0 °F 22.1 °F 30.0 °F 85% 29.55 in 3.0 mi NW 21.9 mph 42.6 mph 0.02 in Snow Light Snow
7:02 AM 33.8 °F 20.1 °F 30.2 °F 87% 29.53 in 3.0 mi NW 29.9 mph 42.6 mph 0.00 in Snow Light Snow
7:54 AM 35.1 °F 21.6 °F 28.0 °F 76% 29.60 in 10.0 mi NW 31.1 mph 50.6 mph 0.00 in Rain Light Rain
8:54 AM 35.1 °F 21.2 °F 27.0 °F 72% 29.63 in 10.0 mi NW 33.4 mph 44.9 mph 0.00 in   Overcast
9:54 AM 34.0 °F 19.1 °F 27.0 °F 75% 29.68 in 9.0 mi NW 36.8 mph 46.0 mph 0.00 in Snow Light Snow
10:54 AM 35.1 °F 21.4 °F 26.1 °F 70% 29.71 in 10.0 mi NNW 32.2 mph 49.5 mph 0.00 in   Overcast
11:54 AM 34.0 °F 19.9 °F 26.1 °F 73% 29.74 in 10.0 mi NNW 32.2 mph 43.7 mph 0.00 in   Overcast
12:54 PM 34.0 °F 19.3 °F 26.1 °F 73% 29.77 in 10.0 mi NW 35.7 mph 46.0 mph 0.00 in   Overcast
1:54 PM 34.0 °F 19.7 °F 26.1 °F 73% 29.79 in 10.0 mi NNW 33.4 mph 41.4 mph 0.00 in   Overcast
2:54 PM 34.0 °F 20.1 °F 26.1 °F 73% 29.84 in 8.0 mi NNW 31.1 mph 42.6 mph 0.00 in Snow Light Snow
3:54 PM 32.0 °F 19.2 °F 27.0 °F 82% 29.89 in 4.0 mi NW 23.0 mph 35.7 mph 0.00 in Snow Light Snow
4:07 PM 32.0 °F 20.1 °F 26.6 °F 80% 29.87 in 3.0 mi NW 19.6 mph 31.1 mph 0.00 in Snow Light Snow
4:23 PM 32.0 °F 18.9 °F 26.6 °F 80% 29.88 in 4.0 mi NW 24.2 mph 31.1 mph 0.00 in Snow Light Snow
4:54 PM 32.0 °F 19.5 °F 27.0 °F 82% 29.92 in 5.0 mi NW 21.9 mph 28.8 mph 0.01 in Snow Light Snow
5:54 PM 33.1 °F 21.5 °F 26.1 °F 75% 29.96 in 10.0 mi NNW 19.6 mph 32.2 mph 0.00 in   Overcast
6:54 PM 33.1 °F 20.1 °F 26.1 °F 75% 30.00 in 9.0 mi NW 25.3 mph 31.1 mph 0.00 in Snow Light Snow
7:54 PM 33.1 °F 20.1 °F 24.1 °F 70% 30.03 in 9.0 mi NNW 25.3 mph 34.5 mph 0.00 in   Overcast
8:47 PM 33.8 °F 20.3 °F 24.8 °F 70% 30.02 in 10.0 mi NNW 28.8 mph 34.5 mph N/A   Overcast
8:54 PM 33.1 °F 22.2 °F 24.1 °F 70% 30.04 in 10.0 mi NNW 17.3 mph 34.5 mph N/A   Overcast
9:07 PM 33.8 °F 22.5 °F 24.8 °F 70% 30.02 in 10.0 mi NNW 19.6 mph 26.5 mph N/A   Overcast
9:54 PM 32.0 °F 19.8 °F 25.0 °F 75% 30.07 in 10.0 mi NNW 20.7 mph 27.6 mph N/A   Overcast
10:54 PM 32.0 °F 21.6 °F 27.0 °F 82% 30.08 in 10.0 mi NW 15.0 mph - N/A   Overcast
11:54 PM 32.0 °F 21.6 °F 26.1 °F 79% 30.09 in 10.0 mi NW 15.0 mph 20.7 mph 0.00 in   Overcast